N8DH Weather Reports


Display with metric or nautical units.
time (UTC)temp
F
wind
direction
speed
MPH
gust
MPH
rain 1hr
in
rain 24hr
in
rain mn
in
humidity
%
barometer
mb
20260902091557 73 198 1.0 4.0 0.00 0.00 0.00 92 1008.5
20260902090035 73 186 0.0 2.0 0.00 0.00 0.00 92 1008.6
20260902084611 73 190 0.0 2.0 0.00 0.00 0.00 93 1008.7
20260902083025 72 175 0.0 2.0 0.00 0.00 0.00 95 1008.6
20260902081607 72 170 0.0 2.0 0.00 0.00 0.00 95 1008.5
20260902080139 72 165 0.0 2.0 0.00 0.00 0.00 95 1008.4
20260902074547 71 144 0.0 2.0 0.00 0.00 0.00 95 1008.3
20260902073115 72 144 0.0 1.0 0.00 0.00 0.00 95 1008.4
20260902071646 72 144 0.0 1.0 0.00 0.00 0.00 95 1008.4
20260902070026 72 144 1.0 1.0 0.00 0.00 0.00 95 1008.4
20260902064600 72 166 0.0 1.0 0.00 0.00 0.00 95 1008.5
20260902063031 72 210 0.0 2.0 0.00 0.00 0.00 95 1008.6
20260902060150 72 210 0.0 2.0 0.00 0.00 0.00 95 1008.8
20260902054550 72 210 0.0 0.0 0.00 0.00 0.00 94 1008.6
20260902053121 72 210 0.0 0.0 0.00 0.00 0.00 94 1008.6
20260902051515 72 210 0.0 2.0 0.00 0.00 0.00 94 1008.6
20260902050057 72 210 0.0 2.0 0.00 0.00 0.00 94 1008.6
20260902044517 72 210 0.0 2.0 0.00 0.00 0.00 94 1008.5
20260902043100 72 210 0.0 2.0 0.00 0.00 0.00 93 1008.6
20260902041503 73 210 0.0 1.0 0.00 0.00 0.00 93 1008.4
20260902040051 73 210 0.0 2.0 0.00 0.00 0.00 91 1008.0
20260902034607 73 184 0.0 2.0 0.00 0.00 0.00 90 1008.1
20260902033141 73 184 0.0 1.0 0.00 0.00 0.00 90 1008.1
20260902031527 74 184 0.0 2.0 0.00 0.00 0.00 89 1008.1
20260902030103 76 256 0.0 2.0 0.00 0.00 0.00 85 1008.1
20260902024637 78 256 0.0 5.0 0.00 0.00 0.00 82 1008.3
20260902023027 77 294 1.0 4.0 0.00 0.00 0.00 87 1008.5
20260902021607 75 246 0.0 2.0 0.00 0.00 0.00 92 1008.5
20260902020141 73 197 0.0 2.0 0.00 0.00 0.00 92 1008.4
20260902014638 73 136 0.0 2.0 0.00 0.00 0.00 90 1008.3
20260902013139 73 136 0.0 2.0 0.00 0.00 0.00 91 1008.1
20260902011656 73 136 0.0 0.0 0.00 0.00 0.00 90 1007.9
20260902010046 74 136 0.0 0.0 0.00 0.00 0.00 87 1007.8
20260902004609 75 136 0.0 0.0 0.00 0.00 0.00 86 1007.6
20260902003140 75 136 0.0 2.0 0.00 0.00 0.00 85 1007.4
20260902001535 77 136 0.0 2.0 0.00 0.00 0.00 82 1007.4
20260901234532 79 194 0.0 2.0 0.00 0.00 0.00 76 1007.4
20260901233109 81 194 2.0 4.0 0.00 0.00 0.00 72 1007.5
20260901231522 81 206 2.0 6.0 0.00 0.00 0.00 72 1007.9
20260901230059 82 190 3.0 11.0 0.00 0.00 0.00 71 1008.0
20260901224640 82 277 3.0 13.0 0.00 0.00 0.00 73 1008.1
20260901223159 82 179 3.0 10.0 0.00 0.00 0.00 76 1008.3
20260901221651 82 173 2.0 12.0 0.00 0.00 0.00 76 1008.4
20260901220029 83 220 2.0 7.0 0.00 0.00 0.00 75 1008.4
20260901214547 83 201 3.0 7.0 0.00 0.00 0.00 74 1008.5
20260901213125 83 194 2.0 9.0 0.00 0.00 0.00 73 1008.4
20260901211539 84 244 4.0 10.0 0.00 0.00 0.00 71 1008.4
20260901204643 86 236 8.0 14.0 0.00 0.00 0.00 70 1008.3
20260901203153 86 227 5.0 12.0 0.00 0.00 0.00 71 1008.3
20260901201653 86 217 7.0 16.0 0.00 0.00 0.00 71 1008.3
20260901200034 87 161 6.0 13.0 0.00 0.00 0.00 71 1008.2
20260901194554 86 213 7.0 14.0 0.00 0.00 0.00 69 1008.2
20260901193055 85 223 6.0 11.0 0.00 0.00 0.00 73 1008.4
20260901191617 85 176 7.0 12.0 0.00 0.00 0.00 72 1008.1
20260901190143 84 219 5.0 11.0 0.00 0.00 0.00 74 1008.2
20260901184506 86 188 4.0 10.0 0.00 0.00 0.00 74 1008.1
20260901183056 84 207 4.0 10.0 0.00 0.00 0.00 73 1008.1
20260901181640 84 196 5.0 8.0 0.00 0.00 0.00 75 1008.2
20260901180022 84 150 5.0 11.0 0.00 0.00 0.00 74 1008.2
20260901174544 83 207 4.0 11.0 0.00 0.00 0.00 75 1008.3
20260901173108 84 178 5.0 10.0 0.00 0.00 0.00 74 1008.8
20260901171651 82 196 4.0 9.0 0.00 0.00 0.00 75 1008.8
20260901170039 82 202 6.0 10.0 0.00 0.00 0.00 75 1009.0
20260901164602 83 170 5.0 10.0 0.00 0.00 0.00 74 1008.9
20260901163137 83 208 5.0 11.0 0.00 0.00 0.00 73 1009.2
20260901161641 83 216 4.0 9.0 0.00 0.00 0.00 73 1009.2
20260901160021 83 223 4.0 10.0 0.00 0.00 0.00 74 1009.1
20260901154605 83 243 5.0 12.0 0.00 0.00 0.00 74 1009.0
20260901153145 85 230 5.0 10.0 0.00 0.00 0.00 72 1008.9
20260901151535 84 201 6.0 10.0 0.00 0.00 0.00 71 1008.7
20260901150030 84 265 4.0 13.0 0.00 0.00 0.00 73 1008.8
20260901144615 83 226 6.0 14.0 0.00 0.00 0.00 72 1008.9
20260901143154 83 280 3.0 12.0 0.00 0.00 0.00 75 1008.9
20260901141557 82 166 3.0 14.0 0.00 0.00 0.00 76 1009.0
20260901140136 81 211 4.0 11.0 0.00 0.00 0.00 75 1009.0
20260901134534 80 230 7.0 12.0 0.00 0.00 0.00 76 1008.8
20260901133107 80 211 4.0 7.0 0.00 0.00 0.00 78 1008.6
20260901131644 80 241 3.0 8.0 0.00 0.00 0.00 78 1008.7
20260901130025 80 236 2.0 6.0 0.00 0.00 0.00 79 1008.8
20260901124556 79 219 2.0 7.0 0.00 0.00 0.00 80 1008.9
20260901123142 78 259 4.0 8.0 0.00 0.00 0.00 80 1008.9
20260901121655 77 263 3.0 6.0 0.00 0.00 0.00 82 1008.9
20260901120057 77 238 1.0 7.0 0.00 0.00 0.00 82 1009.0
20260901114540 77 238 3.0 6.0 0.00 0.00 0.00 82 1008.8
20260901113119 77 215 2.0 8.0 0.00 0.00 0.00 82 1008.8
20260901111531 77 196 2.0 7.0 0.00 0.00 0.00 81 1008.6
20260901110115 77 355 3.0 8.0 0.00 0.00 0.00 82 1008.5
20260901104638 77 190 2.0 8.0 0.00 0.00 0.00 82 1008.4
20260901103015 77 207 3.0 6.0 0.00 0.00 0.00 82 1008.3
20260901101541 76 175 2.0 5.0 0.00 0.00 0.00 83 1008.1
20260901100107 76 166 2.0 6.0 0.00 0.00 0.00 83 1008.2
20260901094642 76 169 1.0 5.0 0.00 0.00 0.00 83 1008.2
20260901093019 76 193 1.0 4.0 0.00 0.00 0.00 84 1008.2